QPF
0.04 0.05 0.05 0.05 0.05 0.05 0.04 0.05 0.07 0.08 0.08 0.06 0.04 0.03 0.04 0.04 0.03 0.04 0.04 0.03 0.03 0.04 0.04 0.04 0.04 0.04 0.04 0.05 0.05 0.06 0.10 0.11 0.07 0.05 0.04 0.03 0.04 0.04 0.05 0.07 0.06 0.05 0.04
0.05 0.04 0.04 0.05 0.05 0.05 0.05 0.06 0.07 0.09 0.09 0.06 0.04 0.03 0.03 0.04 0.06 0.05 0.05 0.04 0.04 0.05 0.05 0.06 0.06 0.05 0.05 0.06 0.05 0.05 0.06 0.09 0.11 0.10 0.07 0.05 0.04 0.04 0.04 0.05 0.06 0.06 0.05
0.05 0.04 0.04 0.04 0.05 0.06 0.09 0.10 0.10 0.09 0.07 0.05 0.04 0.04 0.04 0.04 0.04 0.05 0.05 0.06 0.07 0.07 0.06 0.07 0.08 0.06 0.05 0.05 0.05 0.05 0.05 0.05 0.06 0.07 0.08 0.09 0.06 0.04 0.04 0.04 0.05 0.06 0.06
0.07 0.06 0.05 0.04 0.06 0.08 0.10 0.12 0.10 0.06 0.03 0.03 0.05 0.04 0.04 0.04 0.04 0.04 0.04 0.05 0.07 0.07 0.07 0.07 0.07 0.06 0.05 0.05 0.05 0.05 0.06 0.07 0.07 0.06 0.06 0.06 0.08 0.07 0.05 0.03 0.04 0.05 0.06
0.07 0.07 0.06 0.07 0.07 0.08 0.08 0.07 0.06 0.05 0.04 0.04 0.04 0.06 0.06 0.05 0.05 0.05 0.05 0.05 0.05 0.05 0.06 0.05 0.06 0.06 0.05 0.04 0.05 0.05 0.05 0.06 0.08 0.08 0.07 0.06 0.06 0.07 0.07 0.05 0.04 0.04 0.06
0.07 0.07 0.07 0.08 0.09 0.08 0.07 0.07 0.06 0.06 0.05 0.04 0.05 0.05 0.08 0.08 0.06 0.06 0.07 0.06 0.05 0.04 0.04 0.03 0.04 0.04 0.04 0.04 0.04 0.04 0.04 0.05 0.06 0.08 0.08 0.07 0.06 0.06 0.06 0.07 0.05 0.04 0.05
0.10 0.09 0.07 0.08 0.09 0.08 0.08 0.08 0.08 0.07 0.05 0.05 0.05 0.05 0.05 0.06 0.06 0.04 0.03 0.04 0.03 0.03 0.03 0.03 0.04 0.03 0.03 0.02 0.02 0.02 0.03 0.05 0.06 0.06 0.06 0.06 0.06 0.06 0.06 0.06 0.07 0.06 0.05
0.08 0.11 0.11 0.08 0.08 0.08 0.08 0.07 0.07 0.05 0.06 0.06 0.05 0.05 0.05 0.05 0.05 0.04 0.03 0.03 0.03 0.03 0.02 0.02 0.03 0.04 0.03 0.03 0.02 0.01 0.02 0.03 0.05 0.05 0.06 0.06 0.06 0.06 0.05 0.05 0.05 0.05 0.05
0.06 0.09 0.11 0.10 0.07 0.07 0.07 0.06 0.05 0.05 0.05 0.05 0.05 0.08 0.07 0.05 0.05 0.05 0.03 0.02 0.03 0.04 0.03 0.04 0.03 0.03 0.03 0.04 0.03 0.02 0.01 0.01 0.02 0.04 0.06 0.06 0.05 0.05 0.04 0.04 0.05 0.05 0.05
0.05 0.07 0.08 0.08 0.08 0.06 0.05 0.05 0.05 0.06 0.06 0.06 0.06 0.07 0.08 0.08 0.07 0.06 0.05 0.03 0.03 0.04 0.04 0.03 0.03 0.03 0.03 0.03 0.04 0.03 0.02 0.01 0.01 0.02 0.04 0.05 0.06 0.05 0.04 0.03 0.04 0.05 0.06
0.04 0.05 0.07 0.09 0.08 0.06 0.05 0.05 0.05 0.05 0.05 0.06 0.06 0.06 0.05 0.06 0.05 0.05 0.05 0.04 0.03 0.03 0.03 0.03 0.04 0.03 0.02 0.02 0.02 0.02 0.02 0.02 0.02 0.02 0.02 0.03 0.06 0.06 0.06 0.05 0.04 0.03 0.03
0.04 0.05 0.05 0.05 0.06 0.05 0.04 0.04 0.04 0.04 0.05 0.05 0.06 0.05 0.05 0.04 0.04 0.06 0.06 0.04 0.04 0.03 0.03 0.03 0.03 0.03 0.03 0.02 0.01 0.01 0.01 0.01 0.01 0.02 0.02 0.02 0.03 0.04 0.05 0.06 0.06 0.05 0.05
0.04 0.05 0.05 0.04 0.03 0.03 0.03 0.03 0.03 0.03 0.03 0.04 0.04 0.04 0.04 0.04 0.05 0.06 0.06 0.05 0.05 0.04 0.03 0.03 0.03 0.03 0.03 0.03 0.02 0.01 0.01 0.00 0.00 0.00 0.01 0.01 0.02 0.02 0.03 0.05 0.06 0.06 0.06
0.04 0.04 0.06 0.05 0.04 0.03 0.02 0.02 0.02 0.03 0.03 0.03 0.03 0.04 0.05 0.05 0.06 0.07 0.07 0.08 0.07 0.05 0.04 0.03 0.02 0.02 0.02 0.03 0.02 0.01 0.02 0.01 0.00 0.00 0.01 0.01 0.01 0.02 0.02 0.03 0.04 0.06 0.05
0.04 0.04 0.05 0.05 0.05 0.04 0.03 0.03 0.03 0.02 0.03 0.03 0.04 0.05 0.07 0.08 0.09 0.08 0.07 0.06 0.06 0.06 0.05 0.04 0.03 0.01 0.01 0.02 0.02 0.02 0.03 0.02 0.01 0.00 0.00 0.01 0.01 0.02 0.02 0.02 0.02 0.03 0.04
0.02 0.02 0.04 0.04 0.04 0.02 0.02 0.02 0.03 0.03 0.03 0.04 0.05 0.07 0.08 0.09 0.09 0.08 0.06 0.04 0.05 0.05 0.05 0.04 0.04 0.02 0.02 0.01 0.02 0.02 0.02 0.03 0.02 0.01 0.01 0.01 0.01 0.01 0.01 0.01 0.01 0.02 0.02
0.02 0.02 0.02 0.03 0.03 0.03 0.03 0.03 0.03 0.04 0.04 0.05 0.05 0.05 0.04 0.05 0.05 0.06 0.06 0.05 0.04 0.04 0.04 0.04 0.04 0.03 0.03 0.03 0.03 0.03 0.03 0.03 0.03 0.02 0.02 0.02 0.01 0.01 0.01 0.01 0.01 0.02 0.02
0.02 0.02 0.02 0.03 0.03 0.03 0.03 0.03 0.04 0.03 0.03 0.04 0.03 0.03 0.04 0.05 0.04 0.05 0.05 0.04 0.04 0.04 0.04 0.05 0.05 0.05 0.05 0.04 0.03 0.03 0.03 0.03 0.03 0.03 0.03 0.03 0.03 0.03 0.03 0.04 0.04 0.04 0.04
0.02 0.02 0.02 0.03 0.03 0.03 0.04 0.03 0.03 0.03 0.03 0.04 0.04 0.04 0.04 0.04 0.04 0.04 0.04 0.05 0.04 0.04 0.03 0.03 0.04 0.05 0.07 0.07 0.04 0.04 0.03 0.04 0.03 0.03 0.03 0.02 0.02 0.02 0.03 0.03 0.04 0.05 0.05
0.01 0.02 0.02 0.02 0.03 0.04 0.05 0.04 0.03 0.04 0.04 0.04 0.04 0.05 0.06 0.05 0.04 0.04 0.04 0.04 0.04 0.03 0.03 0.02 0.03 0.04 0.06 0.08 0.10 0.08 0.06 0.05 0.05 0.04 0.04 0.04 0.04 0.03 0.03 0.02 0.02 0.02 0.03
0.01 0.02 0.02 0.02 0.02 0.03 0.04 0.03 0.03 0.04 0.05 0.04 0.04 0.07 0.06 0.05 0.05 0.05 0.04 0.04 0.04 0.04 0.03 0.03 0.03 0.04 0.03 0.04 0.06 0.08 0.08 0.07 0.06 0.04 0.04 0.04 0.04 0.04 0.03 0.03 0.02 0.02 0.03
0.02 0.02 0.03 0.03 0.03 0.03 0.04 0.05 0.05 0.05 0.05 0.05 0.05 0.07 0.07 0.06 0.06 0.06 0.05 0.05 0.04 0.04 0.04 0.03 0.03 0.03 0.03 0.03 0.03 0.04 0.04 0.06 0.06 0.05 0.05 0.05 0.05 0.05 0.04 0.03 0.03 0.02 0.02
0.02 0.02 0.03 0.03 0.04 0.06 0.08 0.10 0.12 0.08 0.06 0.06 0.05 0.05 0.06 0.06 0.06 0.06 0.05 0.04 0.03 0.03 0.03 0.03 0.03 0.02 0.03 0.03 0.02 0.03 0.04 0.06 0.06 0.06 0.05 0.05 0.05 0.04 0.03 0.02 0.02 0.01 0.01
0.03 0.02 0.02 0.02 0.05 0.08 0.09 0.09 0.09 0.05 0.04 0.04 0.05 0.05 0.04 0.03 0.03 0.04 0.03 0.02 0.02 0.02 0.01 0.01 0.02 0.02 0.02 0.02 0.03 0.03 0.04 0.05 0.06 0.05 0.05 0.05 0.04 0.04 0.02 0.03 0.01 0.02 0.02
0.03 0.02 0.02 0.02 0.03 0.03 0.02 0.02 0.02 0.02 0.02 0.02 0.03 0.03 0.03 0.02 0.02 0.02 0.02 0.02 0.02 0.02 0.01 0.01 0.01 0.02 0.02 0.02 0.02 0.03 0.04 0.04 0.05 0.05 0.04 0.04 0.04 0.05 0.04 0.04 0.02 0.01 0.01
0.01 0.01 0.01 0.01 0.01 0.01 0.01 0.01 0.01 0.01 0.01 0.01 0.02 0.02 0.02 0.02 0.02 0.02 0.02 0.02 0.02 0.02 0.02 0.01 0.01 0.01 0.01 0.01 0.01 0.02 0.03 0.05 0.06 0.06 0.06 0.05 0.06 0.07 0.07 0.06 0.05 0.03 0.02
MSLP
1011.54 1011.71 1011.89 1012.09 1012.33 1012.61 1012.89 1013.17 1013.40 1013.55 1013.62 1013.61 1013.54 1013.45 1013.36 1013.30 1013.31 1013.37 1013.49 1013.64 1013.79 1013.93 1014.05 1014.14 1014.21 1014.27 1014.34 1014.45 1014.59 1014.78 1015.00 1015.25 1015.52 1015.81 1016.09 1016.37 1016.64 1016.90 1017.13 1017.35 1017.54 1017.72 1017.88
1011.54 1011.74 1011.94 1012.18 1012.46 1012.77 1013.08 1013.37 1013.60 1013.74 1013.78 1013.73 1013.61 1013.46 1013.31 1013.18 1013.11 1013.10 1013.14 1013.22 1013.32 1013.42 1013.52 1013.60 1013.68 1013.76 1013.86 1014.00 1014.16 1014.35 1014.58 1014.82 1015.08 1015.35 1015.61 1015.87 1016.13 1016.36 1016.59 1016.79 1016.97 1017.14 1017.31
1011.49 1011.71 1011.96 1012.25 1012.58 1012.93 1013.29 1013.60 1013.85 1013.98 1014.01 1013.94 1013.78 1013.58 1013.36 1013.17 1013.02 1012.93 1012.90 1012.91 1012.96 1013.02 1013.09 1013.17 1013.25 1013.36 1013.48 1013.64 1013.81 1014.01 1014.22 1014.44 1014.66 1014.88 1015.10 1015.32 1015.53 1015.73 1015.93 1016.12 1016.30 1016.47 1016.65
1011.36 1011.61 1011.90 1012.24 1012.62 1013.03 1013.43 1013.77 1014.04 1014.19 1014.21 1014.12 1013.95 1013.71 1013.46 1013.21 1013.01 1012.86 1012.76 1012.72 1012.71 1012.73 1012.78 1012.85 1012.94 1013.06 1013.20 1013.35 1013.53 1013.71 1013.89 1014.06 1014.23 1014.38 1014.54 1014.68 1014.84 1014.99 1015.16 1015.33 1015.51 1015.70 1015.89
1011.17 1011.45 1011.77 1012.14 1012.57 1013.01 1013.44 1013.81 1014.09 1014.25 1014.28 1014.20 1014.02 1013.77 1013.51 1013.25 1013.01 1012.83 1012.70 1012.61 1012.57 1012.56 1012.59 1012.64 1012.73 1012.84 1012.97 1013.12 1013.27 1013.42 1013.56 1013.68 1013.77 1013.85 1013.92 1013.99 1014.07 1014.17 1014.29 1014.44 1014.62 1014.83 1015.05
1010.96 1011.25 1011.58 1011.97 1012.41 1012.86 1013.30 1013.68 1013.96 1014.13 1014.17 1014.10 1013.94 1013.71 1013.46 1013.22 1012.99 1012.81 1012.67 1012.56 1012.50 1012.47 1012.47 1012.50 1012.56 1012.65 1012.76 1012.89 1013.01 1013.12 1013.21 1013.26 1013.29 1013.28 1013.27 1013.25 1013.26 1013.29 1013.37 1013.50 1013.68 1013.89 1014.15
1010.80 1011.08 1011.40 1011.78 1012.20 1012.63 1013.04 1013.40 1013.67 1013.84 1013.88 1013.83 1013.70 1013.51 1013.31 1013.10 1012.91 1012.75 1012.63 1012.53 1012.46 1012.41 1012.38 1012.38 1012.41 1012.47 1012.54 1012.63 1012.72 1012.79 1012.83 1012.83 1012.79 1012.72 1012.63 1012.54 1012.47 1012.45 1012.47 1012.57 1012.73 1012.95 1013.23
1010.75 1011.00 1011.29 1011.63 1012.00 1012.39 1012.75 1013.06 1013.30 1013.44 1013.49 1013.45 1013.36 1013.22 1013.06 1012.91 1012.77 1012.66 1012.56 1012.47 1012.39 1012.33 1012.27 1012.24 1012.23 1012.24 1012.28 1012.33 1012.38 1012.42 1012.42 1012.38 1012.31 1012.19 1012.04 1011.90 1011.77 1011.69 1011.67 1011.72 1011.86 1012.07 1012.34
1010.86 1011.07 1011.32 1011.60 1011.90 1012.21 1012.50 1012.75 1012.94 1013.05 1013.09 1013.06 1012.99 1012.89 1012.79 1012.69 1012.61 1012.53 1012.45 1012.38 1012.30 1012.21 1012.13 1012.05 1012.00 1011.97 1011.96 1011.98 1012.00 1012.02 1012.01 1011.96 1011.86 1011.72 1011.55 1011.37 1011.20 1011.08 1011.01 1011.02 1011.11 1011.29 1011.54
1011.13 1011.32 1011.51 1011.72 1011.94 1012.17 1012.38 1012.56 1012.69 1012.76 1012.78 1012.75 1012.70 1012.63 1012.57 1012.51 1012.45 1012.40 1012.34 1012.27 1012.17 1012.06 1011.94 1011.82 1011.72 1011.64 1011.60 1011.59 1011.60 1011.61 1011.60 1011.55 1011.46 1011.33 1011.16 1010.97 1010.78 1010.63 1010.52 1010.49 1010.53 1010.66 1010.86
1011.56 1011.71 1011.85 1011.99 1012.14 1012.29 1012.42 1012.53 1012.60 1012.64 1012.63 1012.60 1012.55 1012.50 1012.45 1012.41 1012.37 1012.32 1012.25 1012.16 1012.04 1011.89 1011.73 1011.56 1011.42 1011.31 1011.23 1011.20 1011.19 1011.20 1011.20 1011.17 1011.10 1010.99 1010.83 1010.65 1010.47 1010.30 1010.17 1010.10 1010.10 1010.17 1010.30
1012.08 1012.20 1012.30 1012.39 1012.47 1012.55 1012.62 1012.67 1012.70 1012.70 1012.67 1012.63 1012.58 1012.53 1012.48 1012.43 1012.38 1012.31 1012.22 1012.10 1011.94 1011.75 1011.54 1011.33 1011.14 1010.99 1010.89 1010.83 1010.81 1010.81 1010.81 1010.79 1010.74 1010.65 1010.53 1010.37 1010.19 1010.03 1009.89 1009.79 1009.75 1009.77 1009.85
1012.66 1012.76 1012.82 1012.86 1012.89 1012.92 1012.94 1012.95 1012.95 1012.92 1012.88 1012.83 1012.77 1012.71 1012.65 1012.58 1012.51 1012.41 1012.28 1012.11 1011.91 1011.67 1011.42 1011.16 1010.93 1010.74 1010.60 1010.50 1010.45 1010.43 1010.42 1010.40 1010.36 1010.28 1010.17 1010.03 1009.87 1009.72 1009.58 1009.48 1009.42 1009.40 1009.44
1013.25 1013.33 1013.36 1013.37 1013.36 1013.35 1013.34 1013.33 1013.31 1013.27 1013.22 1013.16 1013.10 1013.03 1012.94 1012.85 1012.74 1012.61 1012.43 1012.22 1011.97 1011.69 1011.39 1011.09 1010.82 1010.58 1010.39 1010.25 1010.16 1010.09 1010.04 1009.99 1009.92 1009.83 1009.71 1009.58 1009.43 1009.29 1009.17 1009.08 1009.02 1009.00 1009.01
1013.85 1013.92 1013.93 1013.91 1013.87 1013.84 1013.81 1013.77 1013.73 1013.69 1013.64 1013.58 1013.50 1013.42 1013.32 1013.21 1013.07 1012.89 1012.68 1012.42 1012.13 1011.80 1011.46 1011.13 1010.81 1010.53 1010.28 1010.08 1009.92 1009.79 1009.67 1009.55 1009.42 1009.28 1009.13 1008.98 1008.83 1008.70 1008.60 1008.53 1008.49 1008.48 1008.49
1014.49 1014.54 1014.53 1014.49 1014.43 1014.37 1014.32 1014.26 1014.21 1014.15 1014.09 1014.02 1013.95 1013.85 1013.74 1013.61 1013.44 1013.23 1012.99 1012.70 1012.37 1012.01 1011.63 1011.26 1010.90 1010.57 1010.27 1010.00 1009.76 1009.53 1009.31 1009.09 1008.87 1008.65 1008.44 1008.24 1008.07 1007.93 1007.84 1007.80 1007.79 1007.82 1007.87
1015.18 1015.22 1015.20 1015.14 1015.07 1014.98 1014.89 1014.80 1014.72 1014.64 1014.56 1014.48 1014.39 1014.29 1014.16 1014.02 1013.83 1013.60 1013.33 1013.01 1012.65 1012.27 1011.86 1011.46 1011.06 1010.69 1010.33 1009.99 1009.66 1009.33 1009.00 1008.66 1008.33 1008.00 1007.69 1007.41 1007.19 1007.04 1006.95 1006.93 1006.96 1007.03 1007.13
1015.94 1015.98 1015.96 1015.88 1015.78 1015.66 1015.53 1015.40 1015.28 1015.16 1015.05 1014.94 1014.83 1014.71 1014.57 1014.40 1014.20 1013.95 1013.66 1013.31 1012.93 1012.52 1012.10 1011.67 1011.24 1010.83 1010.42 1010.02 1009.61 1009.19 1008.75 1008.29 1007.83 1007.38 1006.96 1006.60 1006.31 1006.11 1006.00 1005.99 1006.05 1006.16 1006.31
1016.75 1016.80 1016.78 1016.70 1016.57 1016.41 1016.24 1016.05 1015.87 1015.69 1015.53 1015.38 1015.24 1015.10 1014.94 1014.75 1014.53 1014.26 1013.94 1013.57 1013.17 1012.73 1012.29 1011.84 1011.39 1010.95 1010.51 1010.06 1009.59 1009.09 1008.56 1008.00 1007.43 1006.86 1006.34 1005.87 1005.50 1005.24 1005.10 1005.08 1005.14 1005.28 1005.47
1017.55 1017.62 1017.61 1017.53 1017.38 1017.19 1016.96 1016.72 1016.47 1016.24 1016.02 1015.82 1015.63 1015.45 1015.26 1015.04 1014.79 1014.49 1014.14 1013.75 1013.32 1012.86 1012.39 1011.93 1011.47 1011.02 1010.56 1010.09 1009.59 1009.04 1008.45 1007.81 1007.15 1006.49 1005.87 1005.31 1004.86 1004.53 1004.34 1004.28 1004.34 1004.48 1004.68
1018.27 1018.36 1018.37 1018.29 1018.14 1017.92 1017.65 1017.36 1017.05 1016.75 1016.47 1016.21 1015.98 1015.75 1015.52 1015.27 1014.98 1014.65 1014.26 1013.83 1013.37 1012.89 1012.40 1011.92 1011.46 1011.01 1010.55 1010.08 1009.58 1009.02 1008.39 1007.72 1007.00 1006.27 1005.57 1004.94 1004.42 1004.02 1003.77 1003.67 1003.69 1003.81 1004.00
1018.81 1018.94 1018.97 1018.91 1018.76 1018.53 1018.24 1017.91 1017.55 1017.20 1016.87 1016.56 1016.27 1016.00 1015.73 1015.43 1015.11 1014.73 1014.30 1013.84 1013.34 1012.83 1012.32 1011.83 1011.37 1010.93 1010.49 1010.03 1009.54 1008.99 1008.37 1007.69 1006.95 1006.18 1005.44 1004.76 1004.18 1003.73 1003.42 1003.26 1003.24 1003.31 1003.45
1019.15 1019.30 1019.36 1019.33 1019.19 1018.97 1018.67 1018.32 1017.94 1017.56 1017.18 1016.83 1016.51 1016.19 1015.87 1015.54 1015.17 1014.75 1014.28 1013.77 1013.24 1012.71 1012.18 1011.69 1011.23 1010.80 1010.38 1009.95 1009.49 1008.96 1008.36 1007.68 1006.94 1006.18 1005.41 1004.71 1004.09 1003.60 1003.25 1003.04 1002.96 1002.98 1003.06
1019.29 1019.45 1019.54 1019.53 1019.42 1019.22 1018.94 1018.59 1018.21 1017.81 1017.42 1017.04 1016.68 1016.33 1015.97 1015.59 1015.18 1014.72 1014.22 1013.68 1013.13 1012.57 1012.04 1011.54 1011.09 1010.67 1010.27 1009.86 1009.41 1008.91 1008.33 1007.67 1006.95 1006.19 1005.43 1004.72 1004.09 1003.58 1003.20 1002.96 1002.83 1002.78 1002.79
1019.28 1019.45 1019.55 1019.57 1019.50 1019.33 1019.08 1018.76 1018.39 1017.99 1017.59 1017.20 1016.81 1016.42 1016.02 1015.61 1015.16 1014.67 1014.14 1013.59 1013.02 1012.46 1011.92 1011.43 1010.98 1010.57 1010.17 1009.77 1009.34 1008.84 1008.27 1007.62 1006.91 1006.16 1005.42 1004.72 1004.10 1003.59 1003.20 1002.94 1002.77 1002.67 1002.61
1019.22 1019.39 1019.51 1019.55 1019.51 1019.39 1019.17 1018.88 1018.53 1018.15 1017.74 1017.33 1016.91 1016.49 1016.05 1015.60 1015.12 1014.60 1014.06 1013.50 1012.93 1012.38 1011.85 1011.37 1010.93 1010.52 1010.12 1009.71 1009.26 1008.75 1008.17 1007.51 1006.80 1006.06 1005.34 1004.66 1004.06 1003.57 1003.19 1002.92 1002.73 1002.60 1002.48
Thickness
5722 5721 5720 5718 5719 5717 5716 5715 5715 5713 5712 5712 5713 5713 5713 5714 5713 5714 5712 5707 5705 5703 5702 5702 5701 5701 5700 5700 5700 5700 5700 5699 5699 5699 5699 5699 5699 5698 5699 5699 5699 5699 5699
5719 5718 5716 5715 5715 5714 5713 5712 5711 5710 5709 5709 5708 5708 5708 5709 5709 5708 5708 5705 5702 5700 5699 5699 5698 5697 5697 5697 5696 5696 5696 5696 5695 5695 5695 5695 5695 5695 5695 5696 5696 5696 5696
5714 5713 5714 5712 5712 5710 5708 5707 5707 5706 5705 5705 5705 5705 5705 5704 5705 5703 5703 5703 5702 5698 5696 5695 5694 5694 5693 5693 5693 5692 5692 5692 5691 5691 5691 5691 5691 5691 5691 5692 5692 5693 5693
5709 5708 5709 5709 5707 5706 5705 5705 5704 5703 5702 5701 5701 5702 5702 5701 5700 5699 5699 5698 5698 5698 5695 5693 5691 5690 5689 5689 5689 5688 5688 5687 5687 5687 5687 5687 5686 5687 5687 5688 5689 5689 5689
5706 5705 5705 5704 5703 5702 5702 5701 5700 5698 5697 5696 5697 5697 5698 5697 5696 5696 5695 5694 5693 5692 5691 5690 5687 5686 5685 5684 5684 5683 5683 5682 5682 5682 5682 5682 5682 5683 5683 5683 5684 5685 5686
5702 5701 5701 5699 5699 5698 5696 5695 5693 5692 5691 5691 5693 5693 5693 5693 5692 5692 5690 5690 5689 5688 5687 5686 5685 5684 5681 5680 5679 5679 5678 5678 5677 5677 5677 5677 5677 5678 5678 5679 5680 5681 5681
5698 5697 5697 5694 5694 5693 5691 5690 5688 5687 5687 5687 5686 5685 5687 5688 5687 5686 5685 5685 5685 5683 5682 5681 5680 5680 5679 5676 5675 5674 5673 5672 5672 5672 5672 5672 5672 5672 5673 5673 5674 5675 5676
5693 5693 5690 5690 5689 5687 5685 5684 5683 5682 5683 5682 5680 5678 5678 5680 5680 5683 5681 5679 5679 5678 5677 5677 5675 5673 5673 5672 5671 5668 5666 5666 5666 5666 5666 5666 5666 5666 5667 5667 5668 5668 5670
5689 5688 5686 5685 5684 5684 5682 5680 5679 5677 5677 5678 5676 5673 5671 5672 5673 5677 5675 5675 5672 5671 5671 5671 5670 5668 5667 5666 5665 5662 5660 5658 5658 5658 5659 5659 5659 5660 5660 5661 5661 5662 5663
5685 5683 5681 5680 5679 5679 5676 5676 5675 5674 5671 5672 5671 5669 5668 5667 5664 5666 5668 5668 5667 5664 5664 5664 5664 5662 5660 5659 5657 5654 5652 5650 5650 5650 5650 5651 5652 5653 5653 5654 5655 5656 5657
5681 5679 5677 5675 5673 5673 5671 5669 5668 5668 5668 5667 5666 5665 5663 5662 5660 5657 5657 5658 5659 5659 5658 5657 5656 5655 5653 5651 5650 5647 5644 5642 5641 5641 5642 5643 5644 5645 5646 5647 5648 5649 5650
5677 5674 5672 5670 5669 5668 5666 5665 5664 5663 5662 5660 5660 5660 5659 5656 5655 5653 5650 5651 5651 5652 5652 5650 5648 5647 5646 5644 5642 5638 5635 5634 5633 5633 5633 5634 5635 5636 5638 5639 5641 5642 5644
5672 5669 5668 5666 5665 5663 5662 5660 5659 5658 5657 5655 5654 5654 5654 5652 5651 5649 5646 5645 5644 5646 5645 5644 5642 5639 5638 5635 5632 5628 5626 5625 5624 5624 5624 5625 5626 5627 5629 5631 5633 5635 5636
5668 5665 5663 5662 5660 5658 5657 5655 5655 5654 5652 5649 5649 5648 5647 5647 5645 5643 5640 5637 5635 5637 5638 5636 5635 5632 5629 5626 5622 5619 5619 5617 5615 5615 5615 5616 5617 5618 5620 5622 5624 5626 5628
5665 5662 5660 5658 5656 5653 5652 5650 5649 5647 5646 5645 5644 5642 5641 5640 5638 5636 5633 5629 5625 5625 5628 5628 5626 5625 5621 5617 5613 5611 5611 5609 5607 5606 5606 5606 5608 5609 5611 5613 5615 5617 5619
5660 5658 5656 5654 5651 5649 5648 5646 5645 5643 5640 5638 5635 5633 5632 5633 5631 5629 5626 5624 5621 5617 5617 5621 5618 5618 5612 5608 5604 5602 5601 5600 5599 5598 5598 5598 5598 5599 5601 5604 5606 5609 5611
5656 5654 5652 5650 5647 5645 5643 5641 5640 5638 5635 5633 5630 5629 5626 5623 5623 5622 5620 5617 5614 5611 5609 5611 5610 5608 5602 5598 5596 5594 5593 5593 5593 5590 5589 5589 5589 5590 5592 5594 5597 5599 5602
5654 5651 5650 5647 5645 5643 5640 5637 5635 5635 5632 5629 5626 5623 5620 5619 5616 5615 5613 5611 5608 5605 5602 5601 5600 5599 5595 5591 5589 5586 5587 5587 5585 5584 5582 5581 5580 5581 5582 5584 5586 5589 5593
5651 5649 5647 5644 5642 5640 5637 5635 5632 5630 5627 5624 5620 5617 5615 5613 5610 5610 5606 5605 5603 5602 5598 5595 5594 5592 5589 5586 5583 5581 5581 5578 5578 5578 5575 5574 5572 5572 5574 5575 5577 5579 5583
5649 5647 5644 5642 5639 5637 5635 5632 5629 5626 5622 5619 5616 5613 5611 5609 5606 5603 5602 5599 5597 5594 5592 5590 5588 5586 5583 5579 5575 5573 5572 5571 5571 5572 5569 5568 5566 5565 5566 5567 5570 5571 5574
5647 5644 5642 5639 5637 5635 5632 5628 5625 5622 5618 5615 5612 5609 5607 5603 5598 5596 5595 5593 5591 5588 5586 5584 5582 5580 5575 5570 5567 5565 5563 5563 5563 5562 5562 5562 5562 5562 5561 5561 5561 5563 5565
5644 5641 5639 5637 5635 5632 5625 5620 5618 5617 5614 5611 5608 5606 5603 5600 5595 5590 5587 5583 5580 5579 5578 5575 5575 5571 5566 5563 5560 5556 5554 5554 5554 5555 5553 5554 5555 5555 5556 5556 5555 5556 5556
5641 5638 5635 5633 5631 5626 5620 5616 5613 5612 5611 5607 5604 5601 5599 5597 5591 5588 5584 5579 5576 5572 5568 5566 5566 5563 5560 5557 5552 5550 5548 5545 5545 5545 5544 5546 5549 5549 5550 5551 5549 5549 5549
5638 5636 5633 5630 5627 5622 5616 5612 5609 5609 5608 5604 5600 5596 5593 5589 5586 5580 5579 5577 5574 5571 5566 5563 5560 5557 5554 5550 5545 5543 5541 5540 5540 5540 5539 5539 5542 5543 5545 5545 5543 5543 5543
5636 5634 5631 5628 5625 5620 5613 5608 5604 5606 5605 5601 5597 5593 5588 5584 5576 5572 5572 5571 5569 5567 5563 5558 5554 5551 5547 5543 5539 5537 5537 5536 5537 5537 5537 5536 5537 5537 5538 5539 5539 5537 5536
5634 5632 5630 5627 5623 5619 5610 5605 5600 5604 5601 5598 5594 5590 5582 5577 5570 5566 5566 5566 5564 5562 5560 5558 5554 5549 5546 5543 5536 5532 5532 5532 5532 5531 5531 5529 5530 5529 5531 5533 5533 5533 5532